Theta_e
311 312 312 312 311 310 309 308 307 307 306 308 311 311 316 323 325 323 325 324 324 325 326 328 330 331 333 333 334 336 337 336 337 337 337 335 337 335 335 332 330 334 333
313 313 313 313 312 312 310 310 310 309 308 309 309 309 311 313 314 318 318 321 323 323 324 324 324 325 325 327 329 330 329 328 329 331 332 333 335 336 334 334 336 335 332
313 314 314 313 312 312 312 312 310 311 311 312 311 309 310 310 311 313 314 315 316 318 320 322 323 324 324 323 322 322 321 320 316 318 324 326 328 335 334 334 334 334 334
315 315 314 314 313 313 312 312 312 311 311 312 312 311 310 310 312 313 314 314 314 314 315 316 317 319 324 323 323 321 322 321 319 317 319 325 330 332 334 334 333 332 332
315 315 315 314 314 314 313 312 312 311 311 310 311 311 310 309 312 312 313 314 314 313 311 310 313 317 318 322 321 323 323 322 322 321 321 322 321 323 329 331 331 332 332
317 315 315 315 315 315 313 312 312 312 311 311 311 310 308 308 311 312 314 314 313 313 311 308 309 308 312 315 320 320 320 322 323 322 320 321 321 322 324 326 329 330 331
316 315 315 314 314 314 313 312 312 312 311 310 310 307 308 310 311 312 312 312 312 312 311 309 310 314 315 314 313 314 315 316 318 319 321 320 319 320 320 320 324 325 325
314 313 313 313 312 312 312 311 311 310 310 309 307 308 308 310 311 311 313 313 313 313 312 310 310 312 313 313 315 315 315 313 313 313 313 314 316 318 320 321 323 318 316
314 313 312 312 312 311 310 310 310 310 309 307 307 308 308 310 311 312 312 312 312 312 312 311 310 309 308 311 312 312 313 313 312 312 311 310 309 308 315 319 319 319 319
313 311 310 310 309 308 308 308 309 308 307 307 307 308 310 311 311 311 310 310 310 310 312 312 311 309 309 308 310 311 311 311 310 310 307 304 305 304 306 309 318 320 320
310 309 308 307 306 306 304 305 308 308 306 306 307 306 308 309 308 308 308 308 308 308 309 312 312 311 309 309 309 309 308 306 306 305 302 304 308 307 305 306 307 309 318
307 307 307 306 305 304 306 306 306 306 306 306 305 305 305 305 305 305 305 306 306 306 306 307 308 307 308 309 309 309 309 308 308 305 309 310 311 311 310 314 314 311 309
305 304 303 304 305 305 305 305 306 305 305 305 305 304 304 304 303 303 303 303 303 303 303 303 304 307 308 308 309 309 306 306 304 305 310 311 311 312 312 313 314 315 316
302 303 303 302 303 303 304 304 304 304 304 303 303 303 303 303 303 303 303 302 302 303 303 303 303 303 303 304 304 304 304 305 307 308 310 310 311 311 312 312 311 312 313
303 303 301 300 300 302 303 303 303 302 302 302 302 302 303 303 303 303 302 303 303 302 303 303 304 304 304 306 305 305 307 308 309 309 310 310 311 311 311 310 311 311 311
303 302 300 300 301 301 302 302 302 301 301 301 301 301 303 302 302 301 302 302 302 302 302 302 303 303 303 303 304 304 304 305 305 307 307 307 308 310 310 311 310 310 308
302 300 300 301 301 301 301 301 301 301 301 300 299 299 299 299 301 301 300 300 300 301 301 301 302 301 301 301 301 301 302 302 303 304 305 305 306 306 306 307 307 307 308
300 301 300 300 300 300 300 300 300 298 298 298 298 297 297 299 300 301 301 300 299 299 300 300 300 299 299 299 299 300 301 301 301 301 302 303 304 304 304 305 305 306 306
300 299 299 299 299 299 298 299 299 299 299 299 299 298 296 300 300 299 299 299 298 298 299 299 299 299 297 297 297 298 298 299 299 300 301 301 301 301 302 302 303 304 304
300 300 300 301 301 300 299 298 298 298 298 298 297 297 297 298 299 299 298 298 298 299 299 298 298 296 293 294 297 298 298 297 297 299 298 298 299 299 300 300 301 302 302
300 301 301 301 301 301 300 299 298 297 297 297 297 296 297 298 298 299 298 299 299 299 299 298 297 295 294 292 291 291 293 296 297 297 297 298 298 299 299 299 299 300 300
301 301 301 301 300 300 299 298 297 297 297 297 297 298 298 298 298 298 299 299 299 299 300 299 297 297 296 292 291 290 291 293 295 296 297 297 298 298 298 298 298 298 298
301 299 300 299 299 298 297 298 298 296 296 297 297 297 297 296 296 296 297 298 299 299 299 298 297 296 293 290 290 289 292 294 294 295 296 297 297 297 297 297 296 296 297
299 298 299 299 298 297 297 296 296 297 295 296 296 295 295 295 295 296 296 296 297 297 297 297 295 292 289 289 289 289 290 293 295 295 296 296 296 296 296 296 296 296 296
298 297 298 297 297 297 296 296 296 295 294 294 294 294 293 293 293 294 294 295 295 295 295 293 291 289 289 289 289 289 290 293 295 296 295 295 295 296 296 296 296 296 296
297 297 297 297 297 296 296 295 294 295 294 294 293 293 292 291 290 291 291 291 291 292 291 289 289 289 288 288 288 288 290 293 294 295 295 295 295 296 296 296 296 296 296
Wind_Speed
4 6 11 13 16 19 20 21 20 17 14 12 10 8 5 4 3 8 9 8 6 5 4 2 2 4 7 8 7 7 12 14 15 18 20 20 19 17 17 15 18 16 23
5 7 10 13 17 18 20 22 23 21 18 16 15 13 10 10 12 8 8 8 9 8 8 6 6 5 6 6 7 8 9 11 10 14 14 13 15 16 17 17 15 20 23
5 7 9 13 14 15 18 20 21 21 20 19 20 20 17 12 8 11 11 13 13 14 14 12 10 7 6 6 6 9 10 9 10 13 17 15 13 11 14 15 16 15 23
5 9 10 14 14 15 17 18 21 19 20 20 21 24 21 14 11 9 11 15 17 18 20 19 17 15 13 10 9 9 7 7 7 9 10 9 8 7 8 10 12 19 24
10 12 13 15 16 17 16 18 18 20 25 25 23 25 26 18 12 12 11 14 15 17 18 18 20 18 15 12 8 8 9 7 5 6 7 7 7 5 4 7 10 8 15
18 14 14 19 20 19 14 15 20 22 23 22 24 30 27 17 13 12 11 13 15 18 18 15 12 12 15 15 17 13 10 8 6 7 7 10 9 5 4 5 7 8 7
11 11 15 14 13 11 11 15 16 17 21 24 30 28 23 16 14 12 13 11 13 14 15 16 12 11 10 10 14 19 17 15 14 12 11 12 13 12 9 5 5 3 2
1 2 7 10 11 12 16 18 19 21 25 29 26 23 21 19 18 15 12 12 13 13 12 15 12 13 12 11 9 10 9 9 11 12 13 16 18 17 15 12 11 11 11
10 11 13 15 16 17 19 21 25 27 27 27 25 23 19 16 15 13 12 13 15 13 10 11 13 15 10 8 8 8 9 11 13 16 17 17 17 19 21 19 16 12 13
14 13 15 18 21 24 24 24 22 22 22 23 22 17 14 13 12 14 15 13 15 14 12 13 15 15 16 14 13 15 16 19 21 23 20 17 15 15 16 21 21 18 14
17 19 20 22 25 27 30 24 18 19 20 21 19 16 13 13 14 16 18 18 19 18 17 16 16 16 18 18 19 18 19 18 23 26 23 18 14 14 13 14 16 22 22
15 18 22 25 27 25 22 17 16 17 18 17 17 18 15 16 19 19 19 20 20 20 20 21 22 22 23 23 23 23 23 27 28 23 18 17 17 15 7 7 7 13 18
20 22 22 18 13 12 13 14 15 14 16 18 20 21 20 19 20 18 19 21 22 23 24 26 27 27 27 25 24 27 31 30 25 20 17 16 16 12 12 12 12 11 6
13 13 14 16 16 16 13 13 13 16 17 18 20 19 19 17 17 17 18 19 21 20 20 20 21 22 23 24 24 25 23 17 14 16 17 13 10 11 12 13 15 15 14
13 13 18 20 17 14 13 13 13 16 16 16 17 19 17 16 18 19 21 19 16 19 17 14 14 12 12 11 10 10 10 12 12 12 13 15 15 15 14 15 15 15 14
13 20 18 18 16 11 12 10 12 16 15 14 16 15 13 16 17 19 13 15 17 15 15 14 13 14 15 16 16 16 15 15 16 16 16 15 14 15 16 17 18 19 19
17 16 14 14 12 11 11 13 19 12 11 14 14 15 18 20 14 8 11 15 18 17 13 14 15 16 17 17 19 18 19 19 20 20 20 19 19 18 18 21 21 22 22
13 11 11 11 11 11 11 10 9 12 13 14 13 15 17 12 10 6 9 13 15 18 15 15 16 17 19 19 18 18 18 18 19 21 20 18 18 18 21 21 21 22 23
8 6 9 10 13 14 16 11 10 13 15 17 18 19 18 5 6 7 10 11 15 12 13 15 14 15 18 18 18 18 17 16 17 16 15 15 16 20 22 20 21 23 27
4 6 7 10 10 11 14 13 14 14 16 16 17 17 15 7 8 11 10 8 8 12 12 13 16 19 21 19 17 17 18 18 18 16 18 19 20 22 22 23 22 23 25
5 8 10 13 13 11 9 12 13 17 18 16 14 12 11 11 11 6 6 7 9 10 10 11 15 20 21 22 21 21 19 18 16 18 19 17 17 19 18 18 19 20 23
9 12 10 8 7 7 8 8 13 15 19 21 23 15 16 16 18 18 10 14 12 11 9 11 15 20 23 25 24 24 19 19 17 18 16 16 18 21 24 26 27 26 26
10 8 7 9 8 8 7 6 8 13 16 18 17 17 17 17 16 16 15 15 11 12 9 10 16 22 24 23 22 22 20 19 19 19 20 20 22 23 25 26 26 28 28
5 7 8 6 7 10 8 10 10 8 10 10 9 11 12 13 13 12 12 11 11 10 8 13 19 23 23 22 22 21 19 17 19 17 19 21 21 22 25 26 27 29 27
8 7 7 9 7 8 9 10 8 6 9 11 11 13 15 14 13 12 11 9 11 13 15 19 20 20 21 21 22 22 21 17 16 16 19 20 21 23 24 25 29 29 25
5 9 9 6 6 6 10 13 9 7 9 11 12 13 14 14 13 12 12 11 13 14 16 17 18 19 21 21 23 22 21 20 18 17 18 20 22 25 28 26 28 26 22
Wind_Direction
79 38 14 19 16 16 20 23 18 13 11 5 355 343 337 332 311 279 295 300 319 288 299 263 311 298 280 274 271 277 270 264 266 273 273 276 278 277 279 284 266 253 232
326 350 15 13 15 20 23 23 21 18 15 14 8 353 329 319 323 321 327 317 301 310 305 298 312 330 343 326 311 307 307 302 292 284 281 277 276 281 274 263 241 243 211
60 18 17 3 360 6 11 11 17 18 13 15 14 8 358 343 331 306 321 326 297 290 296 302 317 318 294 300 309 316 315 312 297 285 288 284 282 277 270 266 241 243 235
318 327 351 353 348 348 349 355 1 8 3 360 2 1 356 345 333 332 316 307 313 312 297 296 296 295 304 316 308 295 298 305 303 296 288 301 290 266 270 265 252 240 245
291 320 328 339 338 335 327 340 348 348 351 350 348 346 341 334 334 324 326 330 330 329 327 300 289 285 286 284 326 313 274 278 307 307 305 330 7 15 284 270 263 251 240
274 300 319 317 317 317 308 330 330 335 339 337 335 333 332 329 325 312 316 323 327 331 334 329 321 289 279 283 277 297 312 300 288 301 324 318 329 350 12 344 291 263 253
255 286 302 308 317 311 312 317 319 321 326 327 326 329 335 330 326 319 306 317 316 326 333 333 324 315 311 308 291 283 291 294 296 302 298 297 304 320 313 308 320 321 261
211 265 290 306 314 312 307 309 315 321 325 327 331 327 327 328 327 318 309 301 303 309 324 336 332 316 314 312 297 296 309 301 299 305 299 288 284 286 299 288 275 285 279
293 299 300 304 310 311 312 315 311 312 317 317 320 328 331 331 332 318 304 302 302 301 298 308 316 331 322 323 324 313 300 297 298 303 303 294 286 276 266 271 275 273 279
286 295 308 314 312 313 315 313 312 314 316 322 324 331 339 337 321 321 321 313 307 308 279 287 296 311 316 306 307 314 311 311 313 309 303 298 291 280 273 260 260 267 267
306 306 310 314 316 317 312 299 303 308 315 318 318 327 327 322 317 319 317 316 313 312 303 290 291 298 303 308 307 312 315 317 320 316 310 307 308 303 281 267 263 258 257
294 304 309 309 312 313 315 317 307 308 307 313 316 316 313 311 309 313 313 311 310 306 304 306 301 294 294 295 296 300 302 309 316 314 313 307 310 322 282 266 280 275 255
310 312 318 327 324 325 331 328 325 320 315 314 315 315 311 314 313 309 309 307 304 301 298 293 290 291 289 290 290 294 301 306 307 303 303 309 317 312 310 302 301 307 296
337 341 334 328 331 321 321 328 327 320 313 319 323 325 322 328 330 327 327 326 325 322 319 313 304 297 290 291 293 295 299 305 310 300 294 293 305 310 300 309 313 310 306
333 335 335 330 330 320 316 323 317 316 326 326 323 322 322 325 330 333 330 335 339 336 336 342 346 354 348 353 338 327 321 325 315 322 319 307 302 303 297 294 292 301 307
334 337 336 339 334 324 327 333 334 342 331 326 326 332 323 314 317 319 327 330 324 330 334 341 349 339 334 334 334 331 330 316 311 314 313 305 305 298 291 288 292 297 300
331 337 339 338 353 342 337 331 335 353 342 328 328 329 325 309 311 350 9 14 5 359 360 6 3 1 356 354 350 344 330 321 314 309 306 308 304 296 293 288 290 294 292
330 345 348 351 351 352 348 344 358 3 358 353 352 356 353 331 327 315 358 12 8 1 12 18 14 9 9 2 354 343 338 333 324 319 317 312 310 306 299 294 291 292 288
342 25 29 30 27 19 18 10 3 358 356 349 340 336 351 351 42 21 17 14 4 10 15 8 3 9 2 349 344 342 340 332 326 321 324 324 311 302 301 303 299 290 286
27 35 23 5 5 16 18 16 13 1 350 347 333 333 358 7 2 4 9 14 25 19 18 24 17 4 355 349 339 330 326 326 325 320 318 315 310 307 305 300 294 289 283
20 15 9 2 4 11 9 11 13 19 8 7 1 2 0 14 3 10 36 23 9 2 5 14 6 2 359 356 352 344 337 335 327 311 311 311 317 320 320 316 307 298 294
14 360 359 358 355 15 6 18 29 27 28 30 34 53 58 51 38 30 39 30 21 12 2 6 358 352 354 351 347 346 344 343 337 334 325 316 317 323 322 316 309 304 301
3 15 24 34 64 32 24 353 0 34 39 33 32 28 31 27 37 33 31 27 19 2 25 358 343 341 347 348 347 347 344 345 349 343 337 330 322 318 319 318 317 315 306
23 22 40 62 49 33 29 11 35 40 39 41 37 25 17 5 360 0 16 19 15 20 355 334 340 347 349 351 352 352 347 340 344 343 339 335 329 325 320 323 327 320 305
25 26 38 42 37 18 16 8 11 64 23 11 8 1 354 351 351 349 346 345 342 343 343 343 346 349 353 356 358 358 355 348 344 342 344 346 341 337 334 329 329 320 313
34 40 52 34 10 15 15 17 19 6 0 0 353 356 1 4 4 -0 359 357 347 341 344 350 354 357 0 2 5 2 -0 357 346 337 336 339 338 343 344 335 336 332 324